Hettinger, ND

8:49 PM MDT on August 31, 2016 (GMT -0600)
Hettinger Municipal

Weather History for KHEI - December, 2012

Change the Weather History Date:

Sunday, December 9, 2012

  Actual Average Record
Temperature  
Mean Temperature 4 °F -  
Max Temperature 12 °F 31 °F 60 °F (2015)
Min Temperature -5 °F 8 °F -19 °F (2013)
Degree Days  
Heating Degree Days 61 46  
Month to date heating degree days 318 399  
Since 1 July heating degree days 2296 2529  
Moisture  
Dew Point -4 °F    
Average Humidity 76    
Maximum Humidity 87    
Minimum Humidity 66    
Precipitation  
Precipitation T in 0.01 in 0.02 in (2013)
Month to date precipitation 0.03 0.06  
Year to date precipitation 14.61 15.85  
Sea Level Pressure  
Sea Level Pressure 30.33 in    
Wind  
Wind Speed 10 mph (NW)    
Max Wind Speed 28 mph    
Max Gust Speed 33 mph    
Visibility 8 miles    
Events Snow    
T = Trace of Precipitation, MM = Missing Value Source: NWS Daily Summary

Daily Weather History Graph

Daily Weather History Graph

Search for Another Location

Airport or City:

Trip Planner

Search our weather history database for the weather conditions in past years. The results will help you decide how hot, cold, wet, or windy it might be!

Date:

Astronomy

Dec. 09, 2012 Rise Set
Actual Time 7:21 AM MST 4:05 PM MST
Civil Twilight 6:46 AM MST 4:39 PM MST
Nautical Twilight 6:08 AM MST 5:17 PM MST
Astronomical Twilight 5:32 AM MST 5:53 PM MST
Moon 2:46 AM MST (12/9) 1:22 PM MST (12/9)
Length of Visible Light 9h 52m
Length of Day
8h 44m
Waning Crescent, 18% of the Moon is Illuminated
Dec 9
Waning Crescent
Dec 13
New
Dec 19
First Quarter
Dec 28
Full
Jan 4
Last Quarter

Hourly Weather History & Observations

Time (MST) Temp. Windchill Dew Point Humidity Pressure Visibility Wind Dir Wind Speed Gust Speed Precip Events Conditions
12:05 AM 6.8 °F -12.9 °F 1.4 °F 79% 30.09 in 1.0 mi North 19.6 mph 28.8 mph 0.00 in Snow Light Snow
12:20 AM 6.8 °F -14.7 °F -0.4 °F 72% 30.09 in 1.2 mi North 24.2 mph 32.2 mph 0.00 in Snow Light Snow
12:53 AM 5.0 °F -16.7 °F -0.0 °F 80% 30.25 in 2.0 mi North 23.0 mph 31.1 mph 0.00 in Snow Light Snow
1:11 AM 5.0 °F -15.7 °F -0.4 °F 78% 30.12 in 1.5 mi North 20.7 mph 32.2 mph 0.00 in Snow Light Snow
1:37 AM 5.0 °F -17.1 °F -0.4 °F 78% 30.13 in 2.0 mi North 24.2 mph 33.4 mph 0.00 in Snow Light Snow
1:53 AM 5.0 °F -16.2 °F -0.0 °F 80% 30.29 in 3.0 mi North 21.9 mph 33.4 mph 0.00 in Snow Light Snow
2:53 AM 3.0 °F -18.8 °F -2.0 °F 80% 30.31 in 10.0 mi NNW 21.9 mph 27.6 mph 0.00 in   Overcast
3:53 AM 3.0 °F -17.3 °F -2.9 °F 76% 30.35 in 10.0 mi NNW 18.4 mph - N/A   Overcast
4:53 AM 1.9 °F -20.2 °F -2.9 °F 80% 30.40 in 10.0 mi NNW 21.9 mph - N/A   Overcast
5:53 AM -2.0 °F -20.5 °F -6.0 °F 83% 30.45 in 10.0 mi NW 12.7 mph - N/A   Overcast
6:10 AM -2.2 °F -20.7 °F -7.6 °F 78% 30.28 in 8.0 mi NW 12.7 mph - N/A   Mostly Cloudy
6:23 AM -4.0 °F -21.2 °F -9.4 °F 78% 30.28 in 10.0 mi NW 10.4 mph - N/A   Mostly Cloudy
6:53 AM -5.1 °F -25.1 °F -9.9 °F 80% 30.50 in 9.0 mi NW 13.8 mph - N/A   Scattered Clouds
7:53 AM -4.0 °F -23.0 °F -9.0 °F 79% 30.51 in 10.0 mi NW 12.7 mph - N/A   Clear
8:53 AM -2.0 °F -18.7 °F -7.1 °F 79% 30.52 in 10.0 mi NW 10.4 mph - N/A   Clear
9:53 AM 3.0 °F -11.5 °F -2.9 °F 76% 30.53 in 10.0 mi NW 9.2 mph - N/A   Clear
10:53 AM 7.0 °F -8.3 °F -0.9 °F 70% 30.52 in 10.0 mi WNW 11.5 mph - N/A   Clear
11:53 AM 9.0 °F -6.6 °F 1.9 °F 73% 30.49 in 10.0 mi WNW 12.7 mph - N/A   Clear
12:53 PM 10.9 °F -1.8 °F 1.9 °F 67% 30.45 in 10.0 mi WNW 9.2 mph - N/A   Clear
1:53 PM 10.9 °F -0.8 °F 1.9 °F 67% 30.42 in 10.0 mi West 8.1 mph - N/A   Clear
2:53 PM 10.9 °F 2.9 °F 1.0 °F 64% 30.41 in 10.0 mi WSW 4.6 mph - N/A   Clear
3:53 PM 7.0 °F 0.1 °F -0.9 °F 70% 30.40 in 10.0 mi WSW 3.5 mph - N/A   Clear
4:53 PM 1.0 °F -10.3 °F -5.1 °F 75% 30.39 in 10.0 mi SW 5.8 mph - N/A   Clear
5:53 PM 1.0 °F - -5.1 °F 75% 30.37 in 10.0 mi Calm Calm - N/A   Clear
6:53 PM -4.0 °F - -8.0 °F 83% 30.36 in 10.0 mi Calm Calm - N/A   Clear
7:53 PM -2.9 °F - -8.0 °F 79% 30.32 in 10.0 mi Calm Calm - N/A   Clear
8:53 PM -0.9 °F -8.9 °F -7.1 °F 75% 30.27 in 10.0 mi SSE 3.5 mph - N/A   Clear
9:53 PM -2.0 °F -18.7 °F -8.0 °F 76% 30.21 in 10.0 mi South 10.4 mph - N/A   Clear
10:53 PM -0.0 °F -13.0 °F -7.1 °F 72% 30.16 in 10.0 mi South 6.9 mph - N/A   Clear
11:53 PM 1.9 °F -10.6 °F -5.1 °F 72% 30.11 in 10.0 mi SSE 6.9 mph - N/A   Clear